Flag for U.S.A. Weather past 2 weeks in St. Augustine, Florida, U.S.A.

Now
62 °F

Clear.


Feels Like: 62 °F
Forecast: 61 / 73 °F
Wind: 3 mph from Northwest

Location: St. Augustine Airport

Current Time: Dec 28, 2014 at 1:41:20 AM

Latest Report: Dec 28, 2014 at 12:58 AM


Visibility: 10 mi

Pressure: 30.18 "Hg

Humidity: 96%

Dew point: 61 °F

Location of St. AugustineLocation

Historic Weather in St. Augustine — Graph

°F

St. Augustine temperature yesterday

Maximum temperature yesterday: 71 °F (at 12:58 PM)
Minimum temperature yesterday: 61 °F (at 12:58 AM)
Average temperature yesterday: 65 °F

Past Weeks' High & Low Weather Summary

 TemperatureHumidityPressure
High82 °F (Dec 24, 1:58 PM)100% (Dec 17, 3:58 AM)30.31 "Hg (Dec 17, 3:58 AM)
Low40 °F (Dec 12, 11:58 PM)24% (Dec 14, 2:58 PM)29.77 "Hg (Dec 24, 2:58 PM)
Average59 °F82%30.10 "Hg
* Reported Dec 12 11:58 PM — Dec 27 11:58 PM, St. Augustine, Weather by CustomWeather, © 2014

Note: Actual official high and low records may vary slightly from our data, if they occured in-between our weather recording intervals... More about our weather records

Advertising

St. Augustine weather history for previous 24 hours

 ConditionsComfort  
Time TempWeatherWind HumidityBarometerVisibility
11:58 PM
Dec 27
63 °FClear.No wind97%30.20 "Hg10 mi
10:58 PM63 °FClear.No wind97%30.22 "Hg10 mi
9:58 PM64 °FOvercast.3 mph97%30.23 "Hg10 mi
8:58 PM64 °FPassing clouds.5 mph94%30.23 "Hg10 mi
7:58 PM64 °FPassing clouds.6 mph97%30.23 "Hg10 mi
6:58 PM65 °FPassing clouds.5 mph94%30.22 "Hg10 mi
5:58 PM67 °FMostly cloudy.6 mph90%30.21 "Hg10 mi
4:58 PM69 °FOvercast.7 mph84%30.19 "Hg10 mi
3:58 PM71 °FPassing clouds.9 mph78%30.19 "Hg10 mi
2:58 PM71 °FScattered clouds.6 mph78%30.20 "Hg10 mi
1:58 PM71 °FPartly sunny.8 mph78%30.21 "Hg10 mi
12:58 PM71 °FPartly sunny.9 mph81%30.23 "Hg10 mi
11:58 AM70 °FOvercast.9 mph84%30.27 "Hg10 mi
10:58 AM69 °FSunny.8 mph87%30.29 "Hg10 mi
9:58 AM67 °FPassing clouds.9 mph90%30.31 "Hg10 mi
8:58 AM65 °FPartly sunny.8 mph94%30.29 "Hg10 mi
7:58 AM62 °FSunny.8 mph96%30.27 "Hg10 mi
6:58 AM62 °FPassing clouds.8 mph93%30.26 "Hg10 mi
5:58 AM61 °FPassing clouds.8 mph97%30.24 "Hg10 mi
4:58 AM61 °FPassing clouds.6 mph97%30.22 "Hg10 mi
3:58 AM61 °FPassing clouds.8 mph97%30.23 "Hg10 mi
2:58 AM62 °FPartly cloudy.10 mph93%30.23 "Hg10 mi
1:58 AM61 °FPassing clouds.8 mph97%30.24 "Hg10 mi
Weather by CustomWeather, © 2014

See weather overviewHow to use our weather pages